Location: Castillon
(43.0896°N, 0.2156°E)
Time: 18:15:12
(UTC+00:00)

Cosmos 1892 Rocket - Pass Details

Date: 16 June 2021
Orbit: 606 x 633 km, 82.5° (Epoch: 22 July)

Event Time Altitude Azimuth Distance (km) Brightness Sun altitude
Exits shadow 23:49:26 37° 260° (W) 976 4.4 -23.5°
Maximum altitude 23:50:06 39° 283° (WNW) 934 4.5 -23.5°
Drops below altitude 10° 23:54:18 10° 353° (N) 2,010 7.3 -23.5°
Sets 23:56:40 0° 1° (N) 2,926 8.5 -23.5°
